CW0351 Weather Reports


time (UTC)temp
C
wind
direction
speed
KPH
gust
KPH
rain 1hr
cm
rain 24hr
cm
rain mn
cm
humidity
%
barometer
mb
20260506004551 23 0 4.8 22.5 0.00 0.00 0.00 40 1009.5
20260506003050 23 209 4.8 19.3 0.00 0.00 0.00 40 1009.2
20260506001551 23 189 1.6 17.7 0.00 0.00 0.00 41 1009.1
20260506000052 23 188 1.6 16.1 0.00 0.00 0.00 41 1009.0
20260505234552 24 159 1.6 19.3 0.00 0.00 0.00 40 1008.8
20260505233050 24 0 1.6 17.7 0.00 0.00 0.00 38 1008.8
20260505231549 25 217 4.8 24.1 0.00 0.00 0.00 34 1008.7
20260505224551 25 200 8.0 35.4 0.00 0.00 0.00 32 1008.5
20260505223106 26 154 6.4 37.0 0.00 0.00 0.00 30 1008.5
20260505221551 26 211 9.7 24.1 0.00 0.00 0.00 31 1008.5
20260505220056 26 218 8.0 25.7 0.00 0.00 0.00 30 1008.3
20260505214553 26 215 8.0 30.6 0.00 0.00 0.00 30 1008.4
20260505213058 26 170 8.0 22.5 0.00 0.00 0.00 29 1008.1
20260505211556 26 225 9.7 27.4 0.00 0.00 0.00 29 1008.1
20260505210054 26 223 8.0 30.6 0.00 0.00 0.00 28 1008.2
20260505204606 27 209 9.7 32.2 0.00 0.00 0.00 28 1008.0
20260505203100 27 163 6.4 27.4 0.00 0.00 0.00 27 1008.3
20260505201556 27 220 11.3 30.6 0.00 0.00 0.00 27 1008.5
20260505200051 27 227 14.5 27.4 0.00 0.00 0.00 27 1008.6
20260505194603 27 234 12.9 40.2 0.00 0.00 0.00 27 1008.6
20260505193052 27 258 9.7 29.0 0.00 0.00 0.00 27 1008.7
20260505191551 27 213 12.9 27.4 0.00 0.00 0.00 27 1008.7
20260505190050 27 219 6.4 30.6 0.00 0.00 0.00 30 1009.0
20260505184548 27 180 9.7 24.1 0.00 0.00 0.00 29 1009.2
20260505183059 27 215 8.0 32.2 0.00 0.00 0.00 31 1009.4
20260505181555 27 235 8.0 24.1 0.00 0.00 0.00 32 1009.6
20260505180056 27 0 8.0 25.7 0.00 0.00 0.00 35 1009.7
20260505174558 27 219 9.7 25.7 0.00 0.00 0.00 32 1009.9
20260505173052 27 180 6.4 24.1 0.00 0.00 0.00 37 1010.0
20260505171555 27 225 4.8 20.9 0.00 0.00 0.00 34 1010.0
20260505170057 26 256 4.8 19.3 0.00 0.00 0.00 34 1010.0
20260505164601 26 236 6.4 17.7 0.00 0.00 0.00 37 1010.2
20260505163100 26 211 3.2 19.3 0.00 0.00 0.00 37 1010.3
20260505161553 26 0 4.8 16.1 0.00 0.00 0.00 39 1010.3
20260505153109 25 219 4.8 19.3 0.00 0.00 0.00 38 1010.7
20260505151557 25 238 4.8 14.5 0.00 0.00 0.00 42 1010.8
20260505124552 18 0 3.2 19.3 0.00 0.00 0.00 55 1011.8
20260505123104 18 0 1.6 9.7 0.00 0.00 0.00 56 1011.7
20260505121556 17 0 0.0 12.9 0.00 0.00 0.00 61 1011.5
20260505120050 16 0 1.6 11.3 0.00 0.00 0.00 63 1011.4
20260505114552 15 0 0.0 0.0 0.00 0.00 0.00 71 1011.4
20260505113055 13 0 0.0 0.0 0.00 0.00 0.00 79 1011.5
20260505111557 12 0 0.0 0.0 0.00 0.00 0.00 80 1011.2
20260505101603 11 0 0.0 0.0 0.00 0.00 0.00 76 1011.0
20260505100055 12 0 0.0 0.0 0.00 0.00 0.00 75 1010.8
20260505094553 12 0 0.0 0.0 0.00 0.00 0.00 75 1010.5
20260505093051 12 0 0.0 0.0 0.00 0.00 0.00 74 1010.6
20260505091557 12 0 0.0 0.0 0.00 0.00 0.00 74 1010.6
20260505090101 12 0 0.0 0.0 0.00 0.00 0.00 72 1010.3
20260505084552 12 0 0.0 0.0 0.00 0.00 0.00 71 1010.2
20260505083054 13 0 0.0 0.0 0.00 0.00 0.00 70 1010.4
20260505081602 13 0 0.0 0.0 0.00 0.00 0.00 69 1010.4
20260505080055 13 0 0.0 0.0 0.00 0.00 0.00 68 1010.4
20260505074607 13 0 0.0 0.0 0.00 0.00 0.00 68 1010.6
20260505073054 13 0 0.0 0.0 0.00 0.00 0.00 66 1010.5
20260505071554 14 0 0.0 0.0 0.00 0.00 0.00 64 1010.4
20260505070055 14 0 0.0 4.8 0.00 0.00 0.00 63 1010.5
20260505064556 14 0 0.0 0.0 0.00 0.00 0.00 62 1010.5
20260505063057 15 0 0.0 4.8 0.00 0.00 0.00 61 1010.4
20260505061618 15 0 0.0 6.4 0.00 0.00 0.00 60 1010.4
20260505060053 15 0 0.0 12.9 0.00 0.00 0.00 58 1010.4
20260505054616 15 0 0.0 8.0 0.00 0.00 0.00 58 1010.4
20260505053051 15 0 0.0 8.0 0.00 0.00 0.00 57 1010.4
20260505051558 15 0 0.0 9.7 0.00 0.00 0.00 55 1010.5
20260505050105 16 0 0.0 12.9 0.00 0.00 0.00 54 1010.4
20260505041558 15 0 0.0 9.7 0.00 0.00 0.00 53 1010.5
20260505040100 15 0 0.0 3.2 0.00 0.00 0.00 53 1010.4
20260505034553 15 0 0.0 0.0 0.00 0.00 0.00 53 1010.4
20260505033055 15 0 0.0 4.8 0.00 0.00 0.00 53 1010.4
20260505031601 15 0 0.0 0.0 0.00 0.00 0.00 53 1010.4
20260505030056 14 0 0.0 0.0 0.00 0.00 0.00 55 1010.3
20260505024607 14 0 0.0 0.0 0.00 0.00 0.00 56 1010.5
20260505023054 14 0 0.0 0.0 0.00 0.00 0.00 56 1010.7
20260505021609 15 0 0.0 0.0 0.00 0.00 0.00 54 1010.7
20260505020055 15 0 0.0 0.0 0.00 0.00 0.00 51 1010.7
20260505014555 15 0 0.0 0.0 0.00 0.00 0.00 51 1010.6
20260505013058 15 0 0.0 0.0 0.00 0.00 0.00 50 1010.5
20260505011558 16 0 0.0 0.0 0.00 0.00 0.00 48 1010.4
20260505010057 16 0 0.0 0.0 0.00 0.00 0.00 45 1010.2